Regional Weather Roundup
Issued by NWS

Home | Current Version | Previous Version | Graphics & Text | Print | Product List | Glossary On
Versions: 1 2 3 4 5 6 7 8 9 10 11 12 13 14 15 16 17 18 19 20 21 22 23 24 25 26 27 28
000
ASUS45 KTFX 040110
RWRMT
MONTANA REGIONAL WEATHER ROUNDUP
NATIONAL WEATHER SERVICE GREAT FALLS MT
600 PM MST SAT DEC 03 2016

NOTE: "FAIR" INDICATES FEW OR NO CLOUDS BELOW 12000 FEET WITH NO
SIGNIFICANT WEATHER AND/OR OBSTRUCTIONS TO VISIBILITY.

MTZ001>007-043-040200-
WEST OF THE DIVIDE

CITY           SKY/WX    TMP DP  RH WIND       PRES   REMARKS
KALISPELL      CLOUDY    34  28  79 SW9       30.01S WCI  27
MISSOULA       CLOUDY    33  30  88 SW6       30.09F WCI  28
BUTTE          CLOUDY    31  15  52 SW9       30.00F WCI  23
MULLAN PASS    LGT SNOW  24  22  91 VRB3      29.99F FOG
ANACONDA         N/A     34  14  44 S7        30.01F WCI  28
DEER LODGE       N/A     32  23  69 E3        30.04F
EUREKA           N/A     37  23  56 S6        29.98F
HAMILTON         N/A     39  21  48 S8G20     30.08S
LIBBY            N/A     36  27  69 CALM      29.99F
RONAN            N/A     35  30  82 CALM      30.10S
$$

MTZ008-052>055-040200-
SOUTHWEST MONTANA

CITY           SKY/WX    TMP DP  RH WIND       PRES   REMARKS
BOZEMAN        CLOUDY    36  19  50 W8        30.01R WCI  30
DILLON         CLOUDY    28  13  53 SW13      30.05R WCI  17
W YELLOWSTONE  CLOUDY    18  18 100 SW15G24   30.08S WCI   3
ENNIS          PTCLDY    30  18  59 S15G23    30.09R WCI  19
THREE FORKS      N/A     38  38 100 W7        30.00R
TWIN BRIDGES     N/A     30  10  43 CALM      30.03R
$$

MTZ009-010-012-014-046-048-049-054-040200-
EAST SLOPES AND CENTRAL MONTANA

CITY           SKY/WX    TMP DP  RH WIND       PRES   REMARKS
CUT BANK       PTCLDY    30  18  60 W18       29.87F WCI  18
GREAT FALLS    CLEAR     29  18  63 W12       29.91F WCI  19
MALMSTROM AFB  CLEAR     36  19  50 W13G20    29.91F WCI  27
HELENA         CLOUDY    38  18  44 MISG      29.99F
AUGUSTA        MOCLDY    34  15  47 W25G31    29.90S WCI  21
BOWMANS CRNR   MOCLDY    29  15  57 SW9       29.91S WCI  20
CHOTEAU          N/A     32  16  51 NW7       29.92S WCI  26
CONRAD           N/A     33  24  70 SW9       29.91F WCI  25
FAIRFIELD        N/A     34  15  47 W14G23    29.90F WCI  24
POWER            N/A     28  17  61 W14       29.90S WCI  17
RAYNESFORD       N/A     35  19  52 W16G24    29.91R WCI  25
ULM              N/A     32  20  62 W10G17    29.93S WCI  23
$$

MTZ011-013-016-021-045-047-050-051-040200-
NORTH CENTRAL MONTANA

CITY           SKY/WX    TMP DP  RH WIND       PRES   REMARKS
HAVRE          CLOUDY    34  26  72 NW7       29.87R WCI  28
LEWISTOWN      MOCLDY    32  21  64 W20       29.90S WCI  20
N BAR RANCH    MOCLDY    32  18  55 W15G24    29.90F WCI  22
CHINOOK          N/A     36  27  69 W7        29.86S WCI  30
DENTON         MOCLDY    31  19  60 W16G26    29.86S WCI  20
GEYSER         MOCLDY    33  22  62 W13       29.90R WCI  24
GRASS RANGE      N/A     33  22  65 W15       29.86R WCI  23
JUDITH GAP       N/A     31  16  53 W17G25    29.89R WCI  20
ROY            MOCLDY    37  17  46 MISG      29.87R
STANFORD         N/A     32  17  54 W16       29.89S WCI  21
WINIFRED       MOCLDY    35  17  49 MISG      29.88R
$$

MTZ017>020-022>027-061-062-040200-
NORTHEAST MONTANA

CITY           SKY/WX    TMP DP  RH WIND       PRES   REMARKS
GLASGOW        CLEAR     35  29  78 W23G33    29.80R WCI  23
JORDAN           N/A     29  21  72 W3        29.84S
SIDNEY         LGT RAIN  35  32  88 W13G21    29.77S WCI  26
WOLF POINT     CLOUDY    36  32  85 W9        29.78F WCI  29
PLENTYWOOD       N/A     34  30  86 W13       29.72S WCI  25
POPLAR           N/A     36  30  80 W13       29.78S WCI  27
$$

MTZ028>42-056>058-040200-
SOUTHCENTRAL AND SOUTHEAST MONTANA

CITY           SKY/WX    TMP DP  RH WIND       PRES   REMARKS
BAKER          CLOUDY    34  28  79 NW18G28   29.83R WCI  23
BILLINGS       MOCLDY    39  21  48 W17       29.95R WCI  30
LIVINGSTON     CLOUDY    36  18  48 W14       29.95F WCI  27
MILES CITY     CLOUDY    38  23  55 W9        29.86R WCI  31
BIG TIMBER     CLOUDY    34  27  75 W13G20    29.97S WCI  25
FORSYTH          N/A     39  19  45 W7        29.89R
HARLOWTON        N/A     30  17  59 W14       29.92R WCI  19
LAUREL           N/A     39  21  48 W18       29.95R WCI  29
ROUNDUP          N/A     37  17  44 SW12      29.83S WCI  29
$$

REGIONAL REPORTS...DAKOTAS

CITY           SKY/WX    TMP DP  RH WIND       PRES   REMARKS
WILLISTON      PTCLDY    31  29  92 SW3       29.75S
MINOT          FLURRIES  28  25  88 S10       29.76F WCI  19
DICKINSON      CLOUDY    27  21  78 SW13      29.75S WCI  16
BEACH          MIX PCPN  32  28  86 W15       29.82R WCI  22
CROSBY         LGT SNOW  32  32 100 SW10      29.73S WCI  24
TIOGA          FLURRIES  32  32 100 W12       29.73F WCI  23
WATFORD CITY   CLOUDY    32  28  86 W7        29.76S WCI  26
BISMARCK       CLOUDY    26  23  88 CALM      29.85F
GRAND FORKS    LGT SNOW  31  25  78 SE17      29.98F WCI  19
FARGO          CLOUDY    32  28  85 SE18G26   29.99F WCI  20
BUFFALO SD       N/A     31  25  78 W12       29.77S WCI  22
RAPID CITY     CLOUDY    33  22  63 W6        29.90F WCI  28
$$

REGIONAL REPORTS...WYOMING/IDAHO/WASHINGTON

CITY           SKY/WX    TMP DP  RH WIND       PRES   REMARKS
GILLETTE       CLOUDY    31  20  63 W7        29.92S WCI  24
SHERIDAN       CLOUDY    36  16  44 W8        29.93R WCI  30
BUFFALO WY     CLOUDY    35  10  35 NW8       29.93R WCI  29
CODY           CLEAR     33  12  41 W18G28    29.97S WCI  22
YELLOWSTONE LA   N/A     16  13  88 CALM      30.05F
IDAHO FALLS    CLOUDY    27  22  81 N7        30.17F WCI  19
SALMON         CLOUDY    34  21  60 SE3       30.10F
BOISE          MOCLDY    40  29  64 CALM      30.22F
SPOKANE        CLOUDY    38  31  76 SW14      30.09F WCI  30
$$

REGIONAL REPORTS...ALBERTA

CITY           SKY/WX    TMP DP  RH WIND       PRES   REMARKS
EDMONTON       CLEAR     30  19  64 W8        29.68S WCI  23
CALGARY        MOCLDY    36  10  35 SW6       29.72F WCI  31
LETHBRIDGE     MOCLDY    34  18  51 SW15      29.82F WCI  24
MEDICINE HAT   PTCLDY    28  25  86 S12       29.81S WCI  18
WATERTON GATE    N/A     32  16  51 SW14G28     N/A  WCI  22
MILK RIVER       N/A     32  21  64 W15         N/A  WCI  22
ONEFOUR          N/A     30  23  74 NW10        N/A  WCI  21
$$

REGIONAL REPORTS...SASKATCHEWAN

CITY           SKY/WX    TMP DP  RH WIND       PRES   REMARKS
SWIFT CURRENT  FLURRIES  32  32 100 W17       29.72S WCI  21
REGINA         CLOUDY    23  23 100 W17       29.70R FOG     WCI   9
SASKATOON      CLOUDY    27  23  86 NW9       29.74S WCI  17
CYPRESS HILLS    N/A     27  23  86 W6          N/A  WCI  20
VAL MARIE        N/A     23  21  93 W8          N/A  WCI  14
ROCKGLEN         N/A     30  28  93 NW16G22     N/A  WCI  19
ASSINIBOIA       N/A     27  19  74 SW9         N/A  WCI  17
$$




USA.gov is the U.S. government's official web portal to all federal, state and local government web resources and services.